CES1781 ZSJN-ZSPD

Flight info

Callsign CES1781
Flight time N/A
Altitude 34000
Route ZSJN SID ABTUB A593 VMB W161 SASAN STAR ZSPD
Aircraft A333/H-CES/L

Departure

Time 2026-05-05 02:28
Airport Jinan Yaoqiang International Airport (ZSJN)

Arrival

Time N/A
Airport Shanghai Pudong International Airport (ZSPD)
Time Latitude Longitude Altitude Speed Heading
2026-05-05 02:02 36.84983 117.20883 88 ft 0 kts 282°
2026-05-05 02:21 36.84983 117.20885 88 ft 1 kts 283°
2026-05-05 02:21 36.84980 117.20904 88 ft 2 kts 276°
2026-05-05 02:21 36.84980 117.20925 88 ft 2 kts 254°
2026-05-05 02:22 36.84985 117.20943 88 ft 2 kts 239°
2026-05-05 02:22 36.84994 117.20958 88 ft 2 kts 224°
2026-05-05 02:22 36.85006 117.20969 88 ft 2 kts 208°
2026-05-05 02:22 36.85019 117.20977 88 ft 2 kts 193°
2026-05-05 02:23 36.85039 117.20979 88 ft 2 kts 177°
2026-05-05 02:23 36.85054 117.20978 88 ft 2 kts 179°
2026-05-05 02:23 36.85069 117.20978 88 ft 2 kts 180°
2026-05-05 02:23 36.85085 117.20979 88 ft 2 kts 180°
2026-05-05 02:24 36.85096 117.20979 88 ft 0 kts 180°
2026-05-05 02:25 36.85090 117.20979 88 ft 4 kts 180°
2026-05-05 02:25 36.85030 117.20978 88 ft 12 kts 180°
2026-05-05 02:25 36.84811 117.21223 88 ft 13 kts 111°
2026-05-05 02:25 36.84606 117.21368 88 ft 11 kts 180°
2026-05-05 02:26 36.84531 117.21368 88 ft 10 kts 179°
2026-05-05 02:26 36.84461 117.21369 88 ft 9 kts 179°
2026-05-05 02:26 36.84259 117.21370 88 ft 7 kts 181°
2026-05-05 02:26 36.84122 117.21431 88 ft 5 kts 101°
2026-05-05 02:27 36.84182 117.21584 86 ft 14 kts 14°
2026-05-05 02:27 36.84337 117.21589 87 ft 41 kts
2026-05-05 02:27 36.84800 117.21596 88 ft 99 kts
2026-05-05 02:27 36.85752 117.21596 104 ft 168 kts
2026-05-05 02:28 36.87303 117.21884 934 ft 174 kts 35°
2026-05-05 02:28 36.88003 117.23044 1693 ft 176 kts 78°
2026-05-05 02:28 36.87859 117.24487 2412 ft 173 kts 116°
2026-05-05 02:28 36.85245 117.26153 3157 ft 220 kts 163°
2026-05-05 02:29 36.83678 117.26480 3665 ft 235 kts 167°
2026-05-05 02:29 36.82022 117.26736 4170 ft 250 kts 169°
2026-05-05 02:29 36.77823 117.27275 5593 ft 271 kts 170°
2026-05-05 02:29 36.73912 117.27759 7169 ft 277 kts 171°
2026-05-05 02:30 36.71983 117.27998 7925 ft 280 kts 171°
2026-05-05 02:30 36.69031 117.28361 9014 ft 284 kts 172°
2026-05-05 02:30 36.67047 117.28606 9724 ft 287 kts 172°
2026-05-05 02:30 36.65048 117.28851 10431 ft 291 kts 173°
2026-05-05 02:31 36.62562 117.29157 11058 ft 304 kts 173°
2026-05-05 02:31 36.55811 117.29985 12352 ft 344 kts 173°
2026-05-05 02:31 36.52558 117.30384 12871 ft 361 kts 174°
2026-05-05 02:31 36.48740 117.30852 13403 ft 379 kts 174°
2026-05-05 02:32 36.46087 117.31175 13821 ft 388 kts 174°
2026-05-05 02:32 36.43397 117.31506 14401 ft 392 kts 174°
2026-05-05 02:32 36.40681 117.31838 15061 ft 393 kts 174°
2026-05-05 02:32 36.37956 117.32171 15710 ft 394 kts 175°
2026-05-05 02:33 36.35217 117.32503 16303 ft 397 kts 175°
2026-05-05 02:33 36.32459 117.32841 16865 ft 400 kts 175°
2026-05-05 02:33 36.29718 117.33174 17407 ft 403 kts 175°
2026-05-05 02:33 36.26899 117.33518 17957 ft 406 kts 175°
2026-05-05 02:34 36.24065 117.33862 18481 ft 409 kts 175°
2026-05-05 02:34 36.20261 117.34324 19144 ft 414 kts 175°
2026-05-05 02:34 36.17382 117.34675 19651 ft 417 kts 175°
2026-05-05 02:34 36.14478 117.35027 20143 ft 420 kts 175°
2026-05-05 02:35 36.11556 117.35382 20625 ft 423 kts 175°
2026-05-05 02:35 36.08638 117.35735 21084 ft 426 kts 175°
2026-05-05 02:35 36.05665 117.36095 21533 ft 429 kts 175°
2026-05-05 02:35 36.02705 117.36453 21966 ft 432 kts 175°
2026-05-05 02:36 35.99704 117.36916 22381 ft 435 kts 168°
2026-05-05 02:36 35.95271 117.38561 22987 ft 440 kts 163°
2026-05-05 02:36 35.92327 117.39665 23391 ft 443 kts 163°
2026-05-05 02:36 35.89364 117.40776 23796 ft 445 kts 163°
2026-05-05 02:37 35.86399 117.41885 24198 ft 448 kts 163°
2026-05-05 02:37 35.83418 117.42999 24602 ft 450 kts 163°
2026-05-05 02:37 35.80378 117.44134 24998 ft 453 kts 163°
2026-05-05 02:37 35.77342 117.45267 25389 ft 455 kts 163°
2026-05-05 02:38 35.74332 117.46390 25773 ft 457 kts 163°
2026-05-05 02:38 35.71265 117.47532 26164 ft 459 kts 162°
2026-05-05 02:38 35.68205 117.48671 26552 ft 461 kts 162°
2026-05-05 02:38 35.65122 117.49818 26939 ft 463 kts 162°
2026-05-05 02:39 35.62063 117.50954 27321 ft 465 kts 162°
2026-05-05 02:39 35.58966 117.52104 27707 ft 467 kts 162°
2026-05-05 02:39 35.55831 117.53268 28095 ft 468 kts 162°
2026-05-05 02:39 35.52712 117.54424 28480 ft 470 kts 162°
2026-05-05 02:40 35.49581 117.55584 28863 ft 472 kts 162°
2026-05-05 02:40 35.46449 117.56743 29244 ft 474 kts 162°
2026-05-05 02:40 35.43286 117.57913 29627 ft 475 kts 162°
2026-05-05 02:40 35.40080 117.59097 30012 ft 477 kts 162°
2026-05-05 02:41 35.36908 117.60270 30392 ft 478 kts 162°
2026-05-05 02:41 35.33710 117.61450 30771 ft 479 kts 162°
2026-05-05 02:41 35.30522 117.62625 31147 ft 481 kts 162°
2026-05-05 02:41 35.27334 117.63799 31521 ft 481 kts 162°
2026-05-05 02:42 35.24105 117.64987 31897 ft 482 kts 162°
2026-05-05 02:42 35.20902 117.66166 32268 ft 483 kts 163°
2026-05-05 02:42 35.17697 117.67343 32634 ft 483 kts 163°
2026-05-05 02:42 35.14458 117.68532 33002 ft 483 kts 163°
2026-05-05 02:43 35.11261 117.69704 33361 ft 483 kts 163°
2026-05-05 02:43 35.08059 117.70878 33720 ft 483 kts 163°
2026-05-05 02:43 35.03423 117.72578 34241 ft 482 kts 163°
2026-05-05 02:43 35.00172 117.73768 34372 ft 487 kts 163°
2026-05-05 02:44 34.96901 117.74965 34292 ft 496 kts 163°
2026-05-05 02:44 34.90209 117.77412 34267 ft 506 kts 163°
2026-05-05 02:45 34.83438 117.79887 34315 ft 512 kts 163°
2026-05-05 02:45 34.76551 117.82383 34307 ft 515 kts 163°
2026-05-05 02:46 34.69751 117.84830 34301 ft 508 kts 163°
2026-05-05 02:46 34.62996 117.87259 34299 ft 507 kts 163°
2026-05-05 02:47 34.56220 117.89688 34301 ft 508 kts 163°
2026-05-05 02:47 34.49445 117.92115 34300 ft 508 kts 163°
2026-05-05 02:48 34.42667 117.94539 34299 ft 508 kts 163°
2026-05-05 02:48 34.35875 117.96963 34300 ft 508 kts 163°
2026-05-05 02:49 34.29127 117.99411 34295 ft 508 kts 160°
2026-05-05 02:49 34.26006 118.01324 34284 ft 506 kts 144°
2026-05-05 02:49 34.23193 118.03857 34312 ft 507 kts 142°
2026-05-05 02:50 34.17481 118.08862 34528 ft 498 kts 143°
2026-05-05 02:50 34.14720 118.11272 34303 ft 486 kts 143°
2026-05-05 02:50 34.12021 118.13623 33465 ft 486 kts 143°
2026-05-05 02:50 34.09250 118.16035 32434 ft 489 kts 143°
2026-05-05 02:51 34.06511 118.18422 31455 ft 490 kts 142°
2026-05-05 02:51 34.03751 118.20828 31005 ft 492 kts 142°
2026-05-05 02:51 34.01002 118.23223 31178 ft 495 kts 142°
2026-05-05 02:51 33.98190 118.25670 31336 ft 499 kts 142°
2026-05-05 02:52 33.95348 118.28153 31375 ft 501 kts 142°
2026-05-05 02:52 33.92582 118.30581 31435 ft 482 kts 142°
2026-05-05 02:52 33.87506 118.35033 31279 ft 466 kts 142°
2026-05-05 02:52 33.84671 118.37515 31174 ft 465 kts 142°
2026-05-05 02:53 33.82039 118.39818 31234 ft 466 kts 142°
2026-05-05 02:53 33.76752 118.44437 31293 ft 470 kts 142°
2026-05-05 02:54 33.71495 118.49024 31281 ft 468 kts 142°
2026-05-05 02:54 33.66215 118.53625 31283 ft 468 kts 142°
2026-05-05 02:55 33.60956 118.58199 31281 ft 468 kts 142°
2026-05-05 02:55 33.55697 118.62766 31282 ft 469 kts 142°
2026-05-05 02:56 33.50409 118.67353 31283 ft 468 kts 143°
2026-05-05 02:56 33.45134 118.71924 31282 ft 468 kts 142°
2026-05-05 02:57 33.39874 118.76492 31283 ft 469 kts 142°
2026-05-05 02:57 33.34602 118.81061 31283 ft 469 kts 142°
2026-05-05 02:58 33.27738 118.87017 31282 ft 468 kts 142°
2026-05-05 02:58 33.22476 118.91637 31283 ft 469 kts 142°
2026-05-05 02:59 33.17247 118.96222 31283 ft 469 kts 142°
2026-05-05 02:59 33.11983 119.00834 31284 ft 468 kts 142°
2026-05-05 03:00 33.05022 119.06920 31284 ft 469 kts 142°
2026-05-05 03:00 32.99754 119.11519 31284 ft 468 kts 142°
2026-05-05 03:01 32.94516 119.16084 31285 ft 468 kts 142°
2026-05-05 03:01 32.89254 119.20662 31283 ft 469 kts 142°
2026-05-05 03:02 32.84002 119.25227 31279 ft 469 kts 142°
2026-05-05 03:02 32.78730 119.29801 31280 ft 468 kts 142°
2026-05-05 03:03 32.73473 119.34355 31280 ft 469 kts 142°
2026-05-05 03:03 32.68184 119.38931 31281 ft 468 kts 142°
2026-05-05 03:04 32.62922 119.43475 31280 ft 468 kts 142°
2026-05-05 03:04 32.57679 119.47997 31280 ft 469 kts 142°
2026-05-05 03:05 32.52409 119.52536 31282 ft 469 kts 142°
2026-05-05 03:05 32.47131 119.57074 31281 ft 469 kts 142°
2026-05-05 03:06 32.41828 119.61626 31282 ft 469 kts 142°
2026-05-05 03:06 32.36567 119.66138 31281 ft 469 kts 142°
2026-05-05 03:07 32.31265 119.70678 31283 ft 468 kts 142°
2026-05-05 03:07 32.26000 119.75178 31237 ft 470 kts 142°
2026-05-05 03:08 32.20726 119.79679 31221 ft 467 kts 142°
2026-05-05 03:08 32.15031 119.84534 31301 ft 469 kts 142°
2026-05-05 03:08 32.11317 119.87695 31185 ft 468 kts 142°
2026-05-05 03:09 32.03590 119.94261 31018 ft 467 kts 142°
2026-05-05 03:09 32.00405 119.96964 31119 ft 465 kts 143°
2026-05-05 03:09 31.97803 119.99170 31036 ft 452 kts 142°
2026-05-05 03:10 31.88159 120.07336 30963 ft 475 kts 142°
2026-05-05 03:10 31.81851 120.12663 29746 ft 507 kts 142°
2026-05-05 03:10 31.79026 120.15045 29089 ft 486 kts 143°
2026-05-05 03:10 31.76307 120.17339 28458 ft 477 kts 143°
2026-05-05 03:11 31.73608 120.19614 27930 ft 474 kts 143°
2026-05-05 03:11 31.70958 120.21844 27388 ft 473 kts 143°
2026-05-05 03:11 31.68291 120.24086 26824 ft 470 kts 143°
2026-05-05 03:11 31.65629 120.26324 26262 ft 465 kts 143°
2026-05-05 03:12 31.63011 120.28523 25702 ft 461 kts 144°
2026-05-05 03:12 31.60483 120.30746 25142 ft 455 kts 137°
2026-05-05 03:12 31.58451 120.33543 24571 ft 451 kts 121°
2026-05-05 03:12 31.57191 120.36871 24012 ft 447 kts 105°
2026-05-05 03:13 31.56363 120.40356 23460 ft 444 kts 107°
2026-05-05 03:13 31.55413 120.43803 22865 ft 443 kts 108°
2026-05-05 03:13 31.54436 120.47191 22230 ft 437 kts 109°
2026-05-05 03:13 31.53464 120.50507 21612 ft 433 kts 109°
2026-05-05 03:14 31.52489 120.53811 20986 ft 420 kts 109°
2026-05-05 03:14 31.51559 120.56955 20334 ft 396 kts 109°
2026-05-05 03:14 31.50679 120.59923 19686 ft 382 kts 109°
2026-05-05 03:14 31.49816 120.62831 19061 ft 373 kts 109°
2026-05-05 03:15 31.47752 120.69779 17479 ft 346 kts 110°
2026-05-05 03:15 31.45133 120.78564 15444 ft 338 kts 109°
2026-05-05 03:15 31.44316 120.81216 14895 ft 360 kts 110°
2026-05-05 03:15 31.43475 120.83923 14318 ft 346 kts 110°
2026-05-05 03:16 31.42668 120.86518 13692 ft 331 kts 110°
2026-05-05 03:16 31.41903 120.88982 13080 ft 318 kts 109°
2026-05-05 03:16 31.40447 120.93720 11870 ft 297 kts 105°
2026-05-05 03:16 31.40279 120.96070 11279 ft 288 kts 80°
2026-05-05 03:17 31.40879 120.98270 10723 ft 280 kts 68°
2026-05-05 03:17 31.41571 121.00369 10150 ft 277 kts 70°
2026-05-05 03:17 31.42224 121.02455 9569 ft 273 kts 70°
2026-05-05 03:17 31.42860 121.04532 8986 ft 270 kts 71°
2026-05-05 03:18 31.43482 121.06589 8403 ft 266 kts 71°
2026-05-05 03:18 31.44083 121.08588 7829 ft 262 kts 71°
2026-05-05 03:18 31.44684 121.10598 7246 ft 259 kts 72°
2026-05-05 03:18 31.44996 121.12620 6665 ft 255 kts 93°
2026-05-05 03:19 31.44496 121.16643 5543 ft 248 kts 97°
2026-05-05 03:19 31.44262 121.18612 5196 ft 236 kts 97°
2026-05-05 03:19 31.43891 121.21887 4955 ft 221 kts 96°
2026-05-05 03:20 31.43417 121.26236 4977 ft 222 kts 96°
2026-05-05 03:20 31.43223 121.28030 4977 ft 223 kts 97°
2026-05-05 03:20 31.43024 121.29842 4993 ft 222 kts 97°
2026-05-05 03:20 31.42566 121.34045 4989 ft 222 kts 96°
2026-05-05 03:21 31.42341 121.36111 4976 ft 222 kts 96°
2026-05-05 03:21 31.42146 121.37891 4969 ft 214 kts 97°
2026-05-05 03:21 31.41917 121.39981 4959 ft 201 kts 96°
2026-05-05 03:21 31.41567 121.43167 5100 ft 191 kts 96°
2026-05-05 03:22 31.41237 121.46176 4974 ft 193 kts 97°
2026-05-05 03:22 31.41069 121.47691 4964 ft 181 kts 96°
2026-05-05 03:22 31.40912 121.49116 5025 ft 178 kts 96°
2026-05-05 03:22 31.40755 121.50542 4965 ft 177 kts 96°
2026-05-05 03:23 31.40598 121.51959 4984 ft 182 kts 96°
2026-05-05 03:23 31.40436 121.53425 4989 ft 179 kts 96°
2026-05-05 03:23 31.40281 121.54821 4951 ft 170 kts 96°
2026-05-05 03:23 31.39930 121.57488 4963 ft 169 kts 107°
2026-05-05 03:24 31.39443 121.58738 4988 ft 167 kts 112°
2026-05-05 03:24 31.38759 121.60492 5051 ft 167 kts 111°
2026-05-05 03:24 31.37390 121.64090 4373 ft 157 kts 111°
2026-05-05 03:24 31.36520 121.66389 3886 ft 154 kts 112°
2026-05-05 03:25 31.35423 121.69289 3278 ft 152 kts 112°
2026-05-05 03:25 31.34997 121.70414 3067 ft 147 kts 112°
2026-05-05 03:25 31.34598 121.71465 2942 ft 137 kts 112°
2026-05-05 03:25 31.34152 121.72644 3000 ft 139 kts 112°
2026-05-05 03:26 31.33425 121.74554 2983 ft 140 kts 112°
2026-05-05 03:26 31.32763 121.75398 2943 ft 147 kts 149°
2026-05-05 03:26 31.31749 121.75704 3025 ft 152 kts 161°
2026-05-05 03:26 31.30435 121.76131 2972 ft 150 kts 156°
2026-05-05 03:27 31.29449 121.76527 2833 ft 152 kts 155°
2026-05-05 03:27 31.28727 121.76817 2647 ft 148 kts 155°
2026-05-05 03:27 31.27764 121.77190 2419 ft 144 kts 155°
2026-05-05 03:27 31.26818 121.77554 2214 ft 143 kts 155°
2026-05-05 03:28 31.25875 121.77913 2014 ft 142 kts 156°
2026-05-05 03:28 31.24928 121.78271 1819 ft 142 kts 155°
2026-05-05 03:28 31.23993 121.78622 1631 ft 142 kts 155°
2026-05-05 03:28 31.23053 121.78978 1440 ft 142 kts 156°
2026-05-05 03:29 31.22113 121.79332 1255 ft 142 kts 156°
2026-05-05 03:29 31.20567 121.79913 948 ft 144 kts 157°
2026-05-05 03:29 31.18895 121.80542 620 ft 144 kts 158°
2026-05-05 03:29 31.17948 121.80898 439 ft 144 kts 158°
2026-05-05 03:30 31.16992 121.81253 254 ft 143 kts 159°
2026-05-05 03:30 31.16048 121.81598 103 ft 143 kts 159°
2026-05-05 03:30 31.15127 121.81950 27 ft 125 kts 162°